Lapse_Rate
7.0 6.9 6.8 6.8 6.7 6.7 6.5 6.4 6.3 6.2 6.2 6.2 6.0 5.9 5.9 5.7 5.3 5.4 5.3 5.2 5.3 5.5 5.7 5.6 5.5 5.6 5.6 5.7 5.8 6.0 5.9 5.8 5.7 5.6 5.6 5.5 5.4 5.3 5.3 5.3 5.2 5.1 5.0
7.1 7.1 7.2 7.1 7.0 6.8 6.6 6.4 6.2 6.2 6.2 6.1 5.9 5.8 5.6 5.6 5.1 5.2 5.2 5.2 5.2 5.4 5.4 5.6 5.8 6.0 5.8 5.8 5.8 5.8 5.8 5.8 5.8 5.8 5.6 5.7 5.7 5.7 5.4 5.4 5.3 5.1 4.9
7.2 7.4 7.4 7.3 7.1 6.7 6.5 6.3 6.3 6.2 6.0 5.9 5.7 5.6 5.6 5.7 5.3 5.2 5.1 5.0 5.4 5.7 5.6 5.8 5.8 6.0 6.2 6.0 5.8 5.8 5.8 5.8 6.0 6.1 5.9 5.6 5.2 5.3 5.7 5.6 5.3 5.4 5.2
7.3 7.4 7.5 7.3 7.1 6.8 6.6 6.5 6.3 6.1 6.0 5.9 5.7 5.6 5.4 5.4 5.3 5.3 5.1 4.8 5.0 5.5 5.6 5.9 6.0 5.9 5.8 5.9 5.9 5.9 6.0 5.9 5.9 5.8 5.9 5.8 5.7 5.3 5.3 5.3 5.4 5.2 5.3
7.6 7.7 7.8 7.6 7.1 6.9 6.8 6.6 6.4 6.1 6.1 6.0 5.9 5.6 5.3 5.3 5.4 5.4 5.2 4.8 4.8 5.3 5.7 5.8 6.0 5.8 5.3 5.5 5.7 5.6 5.7 5.8 5.8 5.7 5.7 5.5 5.6 5.8 5.7 5.5 5.2 5.2 5.1
7.7 7.8 7.8 7.4 7.1 7.1 6.9 6.7 6.6 6.4 6.2 6.1 6.0 5.8 5.7 5.5 5.4 5.2 5.2 5.2 5.4 5.2 5.6 6.2 6.4 6.2 5.4 4.9 5.0 5.1 5.3 5.2 5.2 5.4 5.3 5.5 5.6 5.7 5.6 5.5 5.5 5.5 5.5
7.8 7.9 7.8 7.4 7.2 7.0 6.7 6.5 6.4 6.4 6.3 6.2 6.0 5.8 5.7 5.5 5.4 5.2 5.1 5.4 5.7 5.7 5.4 5.0 5.6 5.8 5.9 5.5 5.2 4.8 5.0 5.2 5.2 5.1 5.3 5.2 5.2 5.1 5.2 5.3 5.5 5.7 5.7
7.8 7.9 7.6 7.4 7.2 7.0 6.8 6.7 6.6 6.5 6.3 6.2 5.9 5.8 5.7 5.4 5.4 5.4 5.2 5.3 5.3 5.4 5.4 5.8 5.3 5.4 5.2 5.0 5.0 5.1 4.8 4.6 4.5 4.5 4.7 4.9 5.0 5.0 5.0 5.0 5.2 5.3 5.6
7.8 7.9 7.6 7.4 7.2 7.1 7.0 6.7 6.5 6.6 6.4 6.1 5.9 5.9 5.9 5.6 5.5 5.6 5.5 5.1 5.3 5.3 5.1 5.0 5.1 5.3 5.3 5.2 4.9 4.8 4.9 5.1 4.9 4.5 4.4 4.4 4.5 4.6 4.7 4.8 5.1 5.2 5.6
7.7 7.8 7.6 7.4 7.2 7.1 6.7 6.6 6.7 6.5 6.2 6.1 6.0 5.8 6.0 5.8 5.9 6.0 5.5 5.5 5.2 4.8 4.3 4.1 4.2 4.2 4.1 4.2 4.4 4.6 4.7 4.8 4.7 4.5 4.6 4.6 4.7 4.7 4.6 4.5 4.6 4.8 5.0
7.7 7.7 7.5 7.3 7.1 7.0 6.8 6.4 6.4 6.2 6.1 6.1 6.0 5.9 6.2 5.9 5.8 5.7 5.5 5.2 5.1 5.0 4.8 4.6 4.6 4.7 4.6 4.6 4.6 4.8 4.9 5.0 4.9 4.7 4.8 4.7 4.6 4.4 4.4 4.2 4.0 4.2 4.5
7.7 7.6 7.4 7.1 6.9 6.8 6.6 6.3 6.2 6.0 5.9 5.8 5.8 5.7 5.7 5.7 5.8 5.6 5.4 5.0 4.7 4.6 4.8 4.8 4.9 5.0 5.0 4.8 4.7 4.6 5.1 5.3 5.2 4.8 4.5 4.4 4.3 4.4 4.5 4.5 4.1 4.1 4.2
7.5 7.4 7.3 7.1 6.7 6.6 6.6 6.1 6.0 6.0 6.1 6.2 6.2 5.9 5.8 5.5 5.3 5.1 4.8 4.6 4.6 4.9 5.0 5.0 5.1 5.0 4.6 4.2 4.1 4.0 4.3 4.4 4.3 4.3 4.3 4.2 4.1 4.0 4.3 4.3 4.0 3.8 4.0
7.1 7.2 6.8 6.9 6.3 6.6 6.1 5.9 5.9 5.9 5.7 6.1 6.2 5.6 5.3 4.6 4.3 4.1 4.1 4.1 4.2 4.7 5.0 5.1 4.7 4.2 4.2 4.1 3.9 3.9 3.9 3.8 3.9 4.1 4.3 4.1 4.0 3.9 3.9 4.0 3.8 3.7 3.9
6.1 6.1 6.0 6.3 6.4 6.2 5.7 5.9 5.7 5.4 5.9 6.3 5.8 5.4 4.9 4.6 4.6 4.4 4.3 4.2 4.7 4.8 4.6 4.5 4.3 4.3 4.5 4.0 3.7 3.5 3.8 4.0 3.7 3.9 4.0 4.1 4.2 4.1 4.1 4.0 4.2 4.0 3.7
5.1 6.0 6.4 6.5 5.8 5.5 5.5 5.5 5.5 5.5 6.3 5.7 5.4 5.3 5.2 4.9 4.6 4.7 4.9 4.7 4.7 4.9 4.7 4.6 4.5 4.3 4.2 3.8 3.9 3.7 3.5 3.9 4.0 4.0 4.2 4.4 4.4 4.2 4.0 4.0 3.8 3.7 3.6
6.5 6.5 6.4 5.4 5.4 5.3 5.4 5.4 5.7 6.1 6.0 5.5 5.1 5.1 5.0 4.7 4.6 4.9 5.0 4.6 4.5 4.6 4.2 4.2 4.2 4.3 4.1 4.2 4.1 3.9 3.9 4.3 4.6 4.7 4.7 4.7 4.4 4.3 4.1 4.1 4.0 3.8 3.5
6.4 6.3 5.2 5.4 5.4 5.5 5.6 5.7 6.1 6.0 6.1 5.7 5.4 5.1 4.8 4.7 4.5 4.6 4.6 4.5 4.3 4.0 4.2 4.5 4.5 4.2 3.9 3.9 3.9 4.3 4.6 4.8 4.8 4.7 4.7 4.4 4.2 4.0 4.1 4.1 4.1 4.1 4.0
6.0 5.4 5.2 5.9 5.7 5.8 5.7 5.7 6.1 6.0 5.6 5.5 5.3 5.2 5.1 4.8 4.7 4.5 4.4 4.4 4.3 4.5 4.4 4.2 4.0 3.7 4.2 4.3 4.2 4.6 4.6 4.8 4.7 4.6 4.4 4.1 4.1 4.1 4.2 4.4 4.5 4.3 3.7
5.4 5.2 5.8 5.8 5.6 5.7 5.6 5.6 5.4 5.4 5.3 5.0 4.9 4.9 4.6 4.3 4.5 4.6 4.5 4.1 4.1 4.0 4.2 4.0 3.9 4.5 4.4 4.3 4.4 4.4 4.8 4.9 4.7 4.3 4.1 4.2 4.2 4.3 4.6 5.1 5.3 5.0 4.2
5.5 5.7 5.5 5.2 5.6 5.7 5.5 5.4 5.0 5.4 4.9 4.8 4.8 4.4 4.1 4.4 4.6 4.4 4.3 4.2 4.0 4.3 4.3 4.3 4.7 5.0 4.7 4.6 4.8 4.8 4.8 4.6 4.4 4.0 4.2 4.2 4.4 4.8 5.1 5.4 5.6 4.8 4.7
5.4 5.4 5.4 5.4 5.6 5.8 5.5 5.4 5.2 5.1 5.1 5.0 4.3 4.1 4.4 4.5 4.6 4.7 4.3 4.1 4.7 4.6 4.4 4.6 5.2 5.1 4.9 4.7 4.9 5.0 4.6 4.2 4.1 4.1 4.2 4.3 4.6 4.9 5.0 5.1 4.9 4.6 4.1
5.5 5.2 5.6 5.8 5.7 5.6 5.4 5.0 5.1 4.9 4.8 4.5 4.4 4.3 4.5 4.8 4.8 4.7 4.8 4.8 4.8 4.8 4.9 5.1 5.1 4.9 4.9 4.7 4.9 4.7 4.1 4.0 4.2 4.3 4.3 4.7 4.8 4.8 4.9 4.9 5.0 4.6 4.0
4.9 5.4 5.6 5.8 5.3 5.4 5.3 5.0 5.0 4.9 4.8 4.7 4.4 4.4 4.9 4.8 4.8 5.4 5.2 5.0 5.1 5.3 5.5 5.4 5.2 4.8 4.7 4.9 4.9 4.3 4.1 4.1 4.1 4.3 4.6 4.9 5.1 4.8 4.7 4.6 4.8 4.6 4.5
4.3 5.5 5.6 5.4 5.1 5.1 5.1 5.1 5.0 4.6 4.9 4.5 4.3 4.9 4.8 5.1 5.3 5.2 5.2 5.3 5.4 5.5 5.6 5.5 5.1 4.4 4.6 5.0 4.8 4.4 4.3 4.3 4.3 4.5 4.8 5.0 5.1 5.2 5.0 4.7 4.7 4.7 4.8
4.8 6.0 5.3 5.3 5.1 4.9 5.0 5.2 5.1 5.1 4.6 4.3 4.7 4.8 4.8 5.6 5.7 5.3 5.5 5.6 5.8 5.8 5.6 5.4 4.9 4.1 4.9 5.1 4.8 4.6 4.5 4.5 4.6 4.9 4.9 5.1 5.2 5.3 5.2 4.8 4.7 4.8 4.9
Wind_Speed
11 8 7 6 7 6 5 6 6 5 6 7 7 6 6 6 6 6 6 6 7 6 6 6 6 7 4 5 4 4 4 4 3 3 4 4 4 4 5 6 7 5 3
11 8 8 7 7 7 6 6 7 6 5 5 7 7 5 5 6 6 6 5 5 6 7 9 8 7 7 5 4 5 5 4 3 3 3 4 3 3 2 3 3 5 2
11 10 8 8 7 7 8 7 7 7 5 6 6 6 5 5 5 5 4 4 6 8 7 7 6 7 6 4 5 5 4 3 3 3 3 1 2 2 3 2 1 2 2
11 8 7 7 7 9 7 7 7 7 7 7 6 5 6 7 6 7 7 7 7 6 6 7 6 7 6 6 6 6 5 5 4 3 3 2 1 3 2 2 3 3 2
11 8 7 7 9 10 10 8 7 7 6 5 5 7 7 7 5 7 5 6 6 6 5 6 5 8 12 8 3 4 5 4 3 4 3 3 3 3 3 3 3 3 4
9 9 9 11 11 9 8 7 7 6 6 5 5 7 7 4 11 10 7 5 2 6 4 5 5 8 6 7 7 9 8 1 3 2 2 3 4 2 2 2 2 3 4
10 9 11 10 9 8 7 6 5 5 5 6 6 7 7 5 10 9 10 4 4 1 4 5 6 6 7 4 5 7 8 9 5 3 4 4 4 3 2 2 1 1 4
10 10 8 9 9 7 6 7 6 5 5 4 4 7 6 4 8 7 7 5 4 6 6 6 5 7 6 5 4 2 3 5 6 4 4 5 4 5 4 4 4 4 3
11 10 9 8 8 7 7 7 6 6 4 3 4 6 7 4 6 4 4 4 4 5 6 4 1 6 8 6 3 2 5 6 9 12 12 15 15 16 14 1 4 2 3
10 10 8 9 9 8 8 6 3 3 4 4 4 6 9 7 8 6 3 1 3 4 5 5 10 8 9 7 4 4 5 6 5 5 6 8 13 11 15 5 4 4 4
10 9 8 8 10 10 7 4 4 4 4 3 4 4 6 6 7 8 5 1 1 1 3 1 3 9 9 9 8 6 8 6 8 6 5 5 5 5 5 4 4 4 3
12 10 11 11 8 7 7 4 3 5 4 3 1 4 3 5 8 6 5 2 1 1 2 1 5 10 9 11 8 13 17 14 6 5 4 6 5 5 6 5 7 7 10
13 11 10 10 9 8 9 6 4 3 1 3 3 2 4 3 4 5 3 5 8 4 3 6 8 8 10 9 13 16 15 5 5 4 6 8 8 8 6 4 6 11 9
12 9 9 8 7 6 4 3 2 3 3 4 4 5 4 4 4 3 3 4 5 3 6 5 7 11 13 10 8 8 5 5 6 7 7 8 8 6 7 7 6 7 5
10 6 6 3 4 5 4 2 4 3 5 4 3 4 4 3 4 7 7 4 4 4 3 3 4 3 5 5 4 5 6 4 4 6 7 7 7 7 8 7 7 8 8
10 7 7 6 4 5 4 3 6 3 7 8 7 5 3 6 8 9 8 9 5 1 2 4 6 5 6 5 5 6 2 4 2 3 4 6 9 10 10 6 5 5 6
10 6 7 5 4 4 4 5 5 1 3 1 4 7 7 7 6 9 10 9 6 6 4 6 5 7 8 4 2 1 2 3 5 5 8 10 10 8 10 10 9 9 9
11 12 6 5 5 5 5 5 4 4 4 4 8 10 11 11 11 14 5 3 7 5 4 4 6 7 2 2 1 2 3 4 7 8 8 7 7 8 9 9 9 9 9
9 8 5 4 4 6 5 5 5 5 4 4 3 3 9 15 14 13 8 4 7 8 4 5 5 3 2 2 3 3 4 6 7 5 5 6 7 8 10 10 9 13 12
7 10 6 4 3 5 5 4 2 1 3 2 3 5 4 2 4 5 5 4 4 4 5 4 3 2 3 1 2 3 6 7 4 4 4 5 5 7 9 10 9 7 8
5 5 6 5 5 4 4 3 2 3 2 0 4 4 10 5 6 5 4 4 2 2 2 2 3 3 2 2 3 5 6 4 4 2 4 4 5 5 6 7 6 7 7
5 5 5 3 4 3 3 4 3 3 2 2 4 4 9 3 5 4 3 1 3 3 1 3 3 2 2 1 3 5 4 4 2 3 4 6 5 5 6 6 7 6 7
6 6 5 4 5 6 3 1 1 3 1 2 4 5 2 3 3 1 2 4 3 3 4 3 4 3 1 2 3 3 4 3 3 3 5 6 5 6 6 7 7 6 3
4 5 6 5 4 3 2 2 3 4 3 4 5 3 2 2 3 5 5 3 3 4 5 3 3 4 1 2 3 3 3 4 7 4 5 5 6 7 6 6 4 4 3
1 4 6 6 5 3 4 4 2 3 1 1 3 2 3 4 5 5 4 3 4 5 6 1 3 4 3 3 2 4 5 4 5 7 6 6 6 8 5 4 4 4 4
4 6 7 5 5 4 3 2 2 3 3 3 4 3 2 4 5 4 3 4 5 5 6 3 3 3 3 3 5 6 3 5 6 8 7 4 5 5 3 4 6 3 4
Wind_Direction
136 138 134 132 127 136 142 126 133 101 85 93 99 91 73 56 40 58 72 68 65 57 51 61 62 57 33 33 25 29 32 19 31 23 27 358 54 50 30 44 53 95 75
141 135 137 139 145 160 137 135 102 115 108 112 112 105 105 87 73 68 63 73 80 73 55 49 28 52 29 36 40 35 27 15 34 4 354 351 41 13 30 39 23 11 343
126 125 132 148 162 153 138 125 127 144 146 102 108 115 120 104 98 85 74 61 82 88 85 77 53 56 39 45 35 36 14 354 19 30 338 344 352 360 339 337 258 234 326
133 133 148 169 152 140 130 122 110 99 97 85 79 69 62 75 62 41 68 66 84 93 92 89 83 80 65 55 43 22 22 26 14 13 343 342 349 328 323 339 341 359 313
137 148 167 130 107 100 93 94 101 92 113 109 108 77 84 72 51 45 56 86 103 125 125 121 111 102 88 83 76 11 8 10 0 5 350 2 340 351 15 342 352 321 316
129 127 114 108 107 108 109 110 105 114 105 119 105 108 91 81 74 55 56 32 72 102 130 149 148 129 119 92 43 28 37 50 338 338 312 323 294 287 323 343 350 19 332
125 118 120 119 115 116 123 122 124 115 103 96 92 113 106 101 76 55 36 41 33 91 171 158 194 181 160 128 53 35 14 356 334 274 265 267 275 267 273 312 291 243 243
126 123 119 116 116 124 111 113 109 110 111 118 101 127 112 101 86 60 29 17 4 311 228 206 173 152 167 138 100 47 321 301 299 298 284 266 252 262 244 222 238 253 279
136 135 132 132 131 132 130 125 135 128 131 142 141 115 129 152 145 102 53 17 15 16 13 7 322 149 132 115 105 283 290 288 289 297 319 315 306 294 282 262 275 250 280
138 138 137 138 141 130 121 120 114 126 143 136 151 146 167 172 173 151 141 84 20 356 43 35 102 136 159 193 212 243 267 264 273 293 302 305 298 289 287 244 236 252 251
136 130 126 118 114 116 112 119 125 112 129 125 147 165 173 173 185 179 181 136 132 353 327 131 205 173 200 228 230 234 233 237 268 266 264 267 278 288 277 267 225 197 223
127 120 111 113 116 119 126 138 140 133 156 216 218 272 254 176 177 189 182 206 265 238 284 187 209 229 245 250 253 245 250 253 257 254 255 262 247 245 258 249 237 227 221
121 125 113 118 145 161 140 156 148 169 258 327 273 346 331 100 106 147 168 261 264 243 242 256 286 280 263 257 255 253 255 222 231 232 245 253 250 247 234 237 238 242 242
114 127 134 141 128 128 133 135 164 155 126 103 100 103 91 82 107 138 217 239 268 275 274 290 278 274 264 253 273 278 257 227 231 245 245 251 259 256 241 236 236 237 227
110 99 75 66 125 103 71 131 143 143 156 153 152 140 134 164 207 198 198 226 242 251 307 297 294 284 288 289 279 270 276 265 263 287 298 297 286 277 274 265 245 242 234
175 167 159 154 163 135 143 111 16 156 134 122 153 152 222 220 202 222 245 260 286 53 299 270 285 282 276 278 267 284 327 36 329 295 290 292 289 281 267 252 244 247 243
170 117 144 147 167 165 160 165 181 254 52 166 205 242 232 227 240 262 263 282 242 158 227 274 262 274 278 285 37 48 282 275 272 293 303 299 295 297 293 281 275 263 256
136 141 143 166 173 171 177 188 166 184 205 240 249 236 244 249 252 261 268 341 301 218 241 252 262 275 226 167 197 230 256 291 308 309 310 305 295 291 292 283 275 269 265
131 146 166 158 197 185 169 174 180 186 201 227 236 250 238 251 255 273 142 231 265 274 274 269 280 172 146 192 245 273 277 310 309 310 309 315 326 325 308 302 301 285 270
134 158 144 163 166 123 131 139 209 230 211 200 196 234 258 162 266 262 256 229 239 251 265 255 169 173 199 202 302 296 308 322 322 308 353 334 314 319 312 310 292 295 302
135 134 152 156 133 140 157 179 170 151 113 269 260 256 208 192 241 248 284 320 209 240 304 163 200 212 128 12 303 314 315 315 303 8 312 302 301 308 302 296 303 290 274
123 131 120 121 126 111 151 152 156 150 217 256 270 293 295 240 265 296 307 239 13 20 327 206 238 125 122 315 308 317 319 308 328 313 312 300 289 296 292 293 290 276 269
131 130 107 102 134 126 102 157 341 147 148 283 291 290 277 270 267 141 64 51 26 341 319 354 101 129 205 285 304 304 307 341 340 304 296 300 303 303 307 304 302 305 336
140 147 131 148 133 125 185 227 190 190 241 278 293 304 349 307 46 69 79 37 353 334 337 100 129 122 112 324 317 316 355 338 309 286 294 293 295 303 308 306 300 341 347
180 149 136 143 141 183 178 165 278 200 230 288 332 343 288 30 82 78 72 21 351 348 329 58 129 112 41 334 346 358 342 345 313 300 287 284 287 303 312 324 335 330 331
312 147 147 148 157 200 187 185 139 60 342 315 336 280 40 98 94 84 59 14 2 352 355 28 133 114 47 346 345 340 314 330 327 304 290 279 286 292 299 306 309 306 301